Year,Month,Day,Hour,Minute,Value (Times are PST for temperature in C)
2010,07,09,00,00,26.20
2010,07,09,00,01,26.20
2010,07,09,00,02,26.20
2010,07,09,00,03,26.10
2010,07,09,00,04,26.00
2010,07,09,00,05,25.90
2010,07,09,00,06,25.90
2010,07,09,00,07,25.80
2010,07,09,00,08,25.80
2010,07,09,00,09,25.70
2010,07,09,00,10,25.70
2010,07,09,00,11,25.70
2010,07,09,00,12,25.60
2010,07,09,00,13,25.60
2010,07,09,00,14,25.60
2010,07,09,00,15,25.60
2010,07,09,00,16,25.50
2010,07,09,00,17,25.50
2010,07,09,00,18,25.50
2010,07,09,00,19,25.50
2010,07,09,00,20,25.50
2010,07,09,00,21,25.50
2010,07,09,00,22,25.50
2010,07,09,00,23,25.60
2010,07,09,00,24,25.60
2010,07,09,00,25,25.70
2010,07,09,00,26,25.80
2010,07,09,00,27,25.90
2010,07,09,00,28,26.00
2010,07,09,00,29,26.10
2010,07,09,00,30,26.20
2010,07,09,00,31,26.20
2010,07,09,00,32,26.30
2010,07,09,00,33,26.30
2010,07,09,00,34,26.30
2010,07,09,00,35,26.30
2010,07,09,00,36,26.30
2010,07,09,00,37,26.30
2010,07,09,00,38,26.30
2010,07,09,00,39,26.30
2010,07,09,00,40,26.30
2010,07,09,00,41,26.30
2010,07,09,00,42,26.30
2010,07,09,00,43,26.30
2010,07,09,00,44,26.30
2010,07,09,00,45,26.30
2010,07,09,00,46,26.40
2010,07,09,00,47,26.40
2010,07,09,00,48,26.40
2010,07,09,00,49,26.40
2010,07,09,00,50,26.30
2010,07,09,00,51,26.30
2010,07,09,00,52,26.30
2010,07,09,00,53,26.30
2010,07,09,00,54,26.30
2010,07,09,00,55,26.30
2010,07,09,00,56,26.30
2010,07,09,00,57,26.30
2010,07,09,00,58,26.30
2010,07,09,00,59,26.30
2010,07,09,01,00,26.30
2010,07,09,01,01,26.30
2010,07,09,01,02,26.30
2010,07,09,01,03,26.30
2010,07,09,01,04,26.30
2010,07,09,01,05,26.30
2010,07,09,01,06,26.30
2010,07,09,01,07,26.30
2010,07,09,01,08,26.30
2010,07,09,01,09,26.30
2010,07,09,01,10,26.30
2010,07,09,01,11,26.30
2010,07,09,01,12,26.30
2010,07,09,01,13,26.30
2010,07,09,01,14,26.40
2010,07,09,01,15,26.30
2010,07,09,01,16,26.30
2010,07,09,01,17,26.30
2010,07,09,01,18,26.30
2010,07,09,01,19,26.30
2010,07,09,01,20,26.30
2010,07,09,01,21,26.30
2010,07,09,01,22,26.30
2010,07,09,01,23,26.30
2010,07,09,01,24,26.30
2010,07,09,01,25,26.30
2010,07,09,01,26,26.30
2010,07,09,01,27,26.20
2010,07,09,01,28,26.20
2010,07,09,01,29,26.20
2010,07,09,01,30,26.20
2010,07,09,01,31,26.20
2010,07,09,01,32,26.20
2010,07,09,01,33,26.20
2010,07,09,01,34,26.20
2010,07,09,01,35,26.20
2010,07,09,01,36,26.10
2010,07,09,01,37,26.10
2010,07,09,01,38,26.10
2010,07,09,01,39,26.10
2010,07,09,01,40,26.10
2010,07,09,01,41,26.00
2010,07,09,01,42,26.00
2010,07,09,01,43,25.90
2010,07,09,01,44,25.90
2010,07,09,01,45,25.90
2010,07,09,01,46,25.90
2010,07,09,01,47,25.80
2010,07,09,01,48,25.80
2010,07,09,01,49,25.80
2010,07,09,01,50,25.80
2010,07,09,01,51,25.80
2010,07,09,01,52,25.80
2010,07,09,01,53,25.80
2010,07,09,01,54,25.80
2010,07,09,01,55,25.80
2010,07,09,01,56,25.80
2010,07,09,01,57,25.70
2010,07,09,01,58,25.70
2010,07,09,01,59,25.70
2010,07,09,02,00,25.60
2010,07,09,02,01,25.60
2010,07,09,02,02,25.50
2010,07,09,02,03,25.40
2010,07,09,02,04,25.40
2010,07,09,02,05,25.30
2010,07,09,02,06,25.30
2010,07,09,02,07,25.20
2010,07,09,02,08,25.20
2010,07,09,02,09,25.10
2010,07,09,02,10,25.10
2010,07,09,02,11,25.00
2010,07,09,02,12,24.90
2010,07,09,02,13,24.90
2010,07,09,02,14,24.80
2010,07,09,02,15,24.80
2010,07,09,02,16,24.80
2010,07,09,02,17,24.80
2010,07,09,02,18,24.80
2010,07,09,02,19,24.70
2010,07,09,02,20,24.70
2010,07,09,02,21,24.70
2010,07,09,02,22,24.70
2010,07,09,02,23,24.70
2010,07,09,02,24,24.80
2010,07,09,02,25,24.80
2010,07,09,02,26,24.80
2010,07,09,02,27,24.80
2010,07,09,02,28,24.80
2010,07,09,02,29,24.80
2010,07,09,02,30,24.80
2010,07,09,02,31,24.80
2010,07,09,02,32,24.90
2010,07,09,02,33,24.90
2010,07,09,02,34,24.90
2010,07,09,02,35,24.90
2010,07,09,02,36,24.90
2010,07,09,02,37,24.80
2010,07,09,02,38,24.80
2010,07,09,02,39,24.80
2010,07,09,02,40,24.80
2010,07,09,02,41,24.80
2010,07,09,02,42,24.80
2010,07,09,02,43,24.80
2010,07,09,02,44,24.80
2010,07,09,02,45,24.70
2010,07,09,02,46,24.70
2010,07,09,02,47,24.60
2010,07,09,02,48,24.60
2010,07,09,02,49,24.60
2010,07,09,02,50,24.60
2010,07,09,02,51,24.60
2010,07,09,02,52,24.60
2010,07,09,02,53,24.60
2010,07,09,02,54,24.60
2010,07,09,02,55,24.50
2010,07,09,02,56,24.50
2010,07,09,02,57,24.60
2010,07,09,02,58,24.60
2010,07,09,02,59,24.60
2010,07,09,03,00,24.70
2010,07,09,03,01,24.70
2010,07,09,03,02,24.70
2010,07,09,03,03,24.70
2010,07,09,03,04,24.70
2010,07,09,03,05,24.70
2010,07,09,03,06,24.70
2010,07,09,03,07,24.70
2010,07,09,03,08,24.70
2010,07,09,03,09,24.80
2010,07,09,03,10,24.80
2010,07,09,03,11,24.80
2010,07,09,03,12,24.80
2010,07,09,03,13,24.80
2010,07,09,03,14,24.80
2010,07,09,03,15,24.80
2010,07,09,03,16,24.70
2010,07,09,03,17,24.70
2010,07,09,03,18,24.70
2010,07,09,03,19,24.70
2010,07,09,03,20,24.70
2010,07,09,03,21,24.70
2010,07,09,03,22,24.70
2010,07,09,03,23,24.70
2010,07,09,03,24,24.60
2010,07,09,03,25,24.60
2010,07,09,03,26,24.60
2010,07,09,03,27,24.50
2010,07,09,03,28,24.50
2010,07,09,03,29,24.50
2010,07,09,03,30,24.50
2010,07,09,03,31,24.50
2010,07,09,03,32,24.60
2010,07,09,03,33,24.60
2010,07,09,03,34,24.60
2010,07,09,03,35,24.60
2010,07,09,03,36,24.60
2010,07,09,03,37,24.50
2010,07,09,03,38,24.50
2010,07,09,03,39,24.50
2010,07,09,03,40,24.50
2010,07,09,03,41,24.50
2010,07,09,03,42,24.50
2010,07,09,03,43,24.40
2010,07,09,03,44,24.40
2010,07,09,03,45,24.40
2010,07,09,03,46,24.40
2010,07,09,03,47,24.40
2010,07,09,03,48,24.30
2010,07,09,03,49,24.30
2010,07,09,03,50,24.30
2010,07,09,03,51,24.30
2010,07,09,03,52,24.30
2010,07,09,03,53,24.30
2010,07,09,03,54,24.30
2010,07,09,03,55,24.40
2010,07,09,03,56,24.30
2010,07,09,03,57,24.40
2010,07,09,03,58,24.30
2010,07,09,03,59,24.30
2010,07,09,04,00,24.30
2010,07,09,04,01,24.30
2010,07,09,04,02,24.30
2010,07,09,04,03,24.30
2010,07,09,04,04,24.30
2010,07,09,04,05,24.30
2010,07,09,04,06,24.30
2010,07,09,04,07,24.30
2010,07,09,04,08,24.30
2010,07,09,04,09,24.30
2010,07,09,04,10,24.20
2010,07,09,04,11,24.20
2010,07,09,04,12,24.20
2010,07,09,04,13,24.20
2010,07,09,04,14,24.30
2010,07,09,04,15,24.30
2010,07,09,04,16,24.30
2010,07,09,04,17,24.30
2010,07,09,04,18,24.30
2010,07,09,04,19,24.20
2010,07,09,04,20,24.20
2010,07,09,04,21,24.20
2010,07,09,04,22,24.20
2010,07,09,04,23,24.20
2010,07,09,04,24,24.20
2010,07,09,04,25,24.20
2010,07,09,04,26,24.20
2010,07,09,04,27,24.10
2010,07,09,04,28,24.10
2010,07,09,04,29,24.10
2010,07,09,04,30,24.00
2010,07,09,04,31,24.00
2010,07,09,04,32,24.00
2010,07,09,04,33,23.90
2010,07,09,04,34,23.90
2010,07,09,04,35,23.90
2010,07,09,04,36,23.90
2010,07,09,04,37,23.80
2010,07,09,04,38,23.80
2010,07,09,04,39,23.80
2010,07,09,04,40,23.80
2010,07,09,04,41,23.70
2010,07,09,04,42,23.70
2010,07,09,04,43,23.70
2010,07,09,04,44,23.70
2010,07,09,04,45,23.70
2010,07,09,04,46,23.70
2010,07,09,04,47,23.70
2010,07,09,04,48,23.70
2010,07,09,04,49,23.60
2010,07,09,04,50,23.60
2010,07,09,04,51,23.60
2010,07,09,04,52,23.50
2010,07,09,04,53,23.50
2010,07,09,04,54,23.40
2010,07,09,04,55,23.40
2010,07,09,04,56,23.30
2010,07,09,04,57,23.30
2010,07,09,04,58,23.20
2010,07,09,04,59,23.20
2010,07,09,05,00,23.20
2010,07,09,05,01,23.20
2010,07,09,05,02,23.20
2010,07,09,05,03,23.10
2010,07,09,05,04,23.10
2010,07,09,05,05,23.10
2010,07,09,05,06,23.10
2010,07,09,05,07,23.10
2010,07,09,05,08,23.10
2010,07,09,05,09,23.20
2010,07,09,05,10,23.20
2010,07,09,05,11,23.20
2010,07,09,05,12,23.30
2010,07,09,05,13,23.30
2010,07,09,05,14,23.30
2010,07,09,05,15,23.30
2010,07,09,05,16,23.40
2010,07,09,05,17,23.40
2010,07,09,05,18,23.40
2010,07,09,05,19,23.40
2010,07,09,05,20,23.40
2010,07,09,05,21,23.50
2010,07,09,05,22,23.50
2010,07,09,05,23,23.60
2010,07,09,05,24,23.60
2010,07,09,05,25,23.60
2010,07,09,05,26,23.60
2010,07,09,05,27,23.70
2010,07,09,05,28,23.70
2010,07,09,05,29,23.70
2010,07,09,05,30,23.70
2010,07,09,05,31,23.80
2010,07,09,05,32,23.70
2010,07,09,05,33,23.70
2010,07,09,05,34,23.60
2010,07,09,05,35,23.60
2010,07,09,05,36,23.50
2010,07,09,05,37,23.40
2010,07,09,05,38,23.40
2010,07,09,05,39,23.30
2010,07,09,05,40,23.30
2010,07,09,05,41,23.30
2010,07,09,05,42,23.30
2010,07,09,05,43,23.30
2010,07,09,05,44,23.30
2010,07,09,05,45,23.30
2010,07,09,05,46,23.30
2010,07,09,05,47,23.30
2010,07,09,05,48,23.30
2010,07,09,05,49,23.30
2010,07,09,05,50,23.40
2010,07,09,05,51,23.40
2010,07,09,05,52,23.40
2010,07,09,05,53,23.40
2010,07,09,05,54,23.30
2010,07,09,05,55,23.30
2010,07,09,05,56,23.30
2010,07,09,05,57,23.30
2010,07,09,05,58,23.30
2010,07,09,05,59,23.30
2010,07,09,06,00,23.30
2010,07,09,06,01,23.30
2010,07,09,06,02,23.30
2010,07,09,06,03,23.30
2010,07,09,06,04,23.30
2010,07,09,06,05,23.30
2010,07,09,06,06,23.40
2010,07,09,06,07,23.40
2010,07,09,06,08,23.40
2010,07,09,06,09,23.40
2010,07,09,06,10,23.50
2010,07,09,06,11,23.50
2010,07,09,06,12,23.50
2010,07,09,06,13,23.60
2010,07,09,06,14,23.60
2010,07,09,06,15,23.60
2010,07,09,06,16,23.60
2010,07,09,06,17,23.60
2010,07,09,06,18,23.50
2010,07,09,06,19,23.50
2010,07,09,06,20,23.50
2010,07,09,06,21,23.50
2010,07,09,06,22,23.60
2010,07,09,06,23,23.60
2010,07,09,06,24,23.60
2010,07,09,06,25,23.60
2010,07,09,06,26,23.60
2010,07,09,06,27,23.60
2010,07,09,06,28,23.60
2010,07,09,06,29,23.60
2010,07,09,06,30,23.50
2010,07,09,06,31,23.50
2010,07,09,06,32,23.50
2010,07,09,06,33,23.50
2010,07,09,06,34,23.60
2010,07,09,06,35,23.60
2010,07,09,06,36,23.60
2010,07,09,06,37,23.60
2010,07,09,06,38,23.60
2010,07,09,06,39,23.50
2010,07,09,06,40,23.60
2010,07,09,06,41,23.60
2010,07,09,06,42,23.60
2010,07,09,06,43,23.60
2010,07,09,06,44,23.60
2010,07,09,06,45,23.60
2010,07,09,06,46,23.70
2010,07,09,06,47,23.70
2010,07,09,06,48,23.70
2010,07,09,06,49,23.70
2010,07,09,06,50,23.80
2010,07,09,06,51,23.80
2010,07,09,06,52,23.80
2010,07,09,06,53,23.80
2010,07,09,06,54,23.80
2010,07,09,06,55,23.70
2010,07,09,06,56,23.70
2010,07,09,06,57,23.70
2010,07,09,06,58,23.70
2010,07,09,06,59,23.70
2010,07,09,07,00,23.80
2010,07,09,07,01,23.70
2010,07,09,07,02,23.70
2010,07,09,07,03,23.70
2010,07,09,07,04,23.70
2010,07,09,07,05,23.70
2010,07,09,07,06,23.70
2010,07,09,07,07,23.70
2010,07,09,07,08,23.70
2010,07,09,07,09,23.70
2010,07,09,07,10,23.70
2010,07,09,07,11,23.70
2010,07,09,07,12,23.70
2010,07,09,07,13,23.80
2010,07,09,07,14,23.80
2010,07,09,07,15,23.80
2010,07,09,07,16,23.80
2010,07,09,07,17,23.80
2010,07,09,07,18,23.80
2010,07,09,07,19,23.90
2010,07,09,07,20,23.90
2010,07,09,07,21,23.90
2010,07,09,07,22,24.00
2010,07,09,07,23,24.00
2010,07,09,07,24,24.10
2010,07,09,07,25,24.10
2010,07,09,07,26,24.20
2010,07,09,07,27,24.20
2010,07,09,07,28,24.20
2010,07,09,07,29,24.30
2010,07,09,07,30,24.30
2010,07,09,07,31,24.40
2010,07,09,07,32,24.40
2010,07,09,07,33,24.40
2010,07,09,07,34,24.50
2010,07,09,07,35,24.50
2010,07,09,07,36,24.60
2010,07,09,07,37,24.60
2010,07,09,07,38,24.60
2010,07,09,07,39,24.60
2010,07,09,07,40,24.60
2010,07,09,07,41,24.50
2010,07,09,07,42,24.50
2010,07,09,07,43,24.50
2010,07,09,07,44,24.50
2010,07,09,07,45,24.40
2010,07,09,07,46,24.40
2010,07,09,07,47,24.30
2010,07,09,07,48,24.30
2010,07,09,07,49,24.20
2010,07,09,07,50,24.20
2010,07,09,07,51,24.20
2010,07,09,07,52,24.20
2010,07,09,07,53,24.20
2010,07,09,07,54,24.10
2010,07,09,07,55,24.20
2010,07,09,07,56,24.20
2010,07,09,07,57,24.10
2010,07,09,07,58,24.10
2010,07,09,07,59,24.10
2010,07,09,08,00,24.10
2010,07,09,08,01,24.10
2010,07,09,08,02,24.10
2010,07,09,08,03,24.10
2010,07,09,08,04,24.10
2010,07,09,08,05,24.10
2010,07,09,08,06,24.10
2010,07,09,08,07,24.10
2010,07,09,08,08,24.20
2010,07,09,08,09,24.20
2010,07,09,08,10,24.20
2010,07,09,08,11,24.30
2010,07,09,08,12,24.30
2010,07,09,08,13,24.40
2010,07,09,08,14,24.40
2010,07,09,08,15,24.40
2010,07,09,08,16,24.40
2010,07,09,08,17,24.40
2010,07,09,08,18,24.40
2010,07,09,08,19,24.40
2010,07,09,08,20,24.50
2010,07,09,08,21,24.50
2010,07,09,08,22,24.50
2010,07,09,08,23,24.50
2010,07,09,08,24,24.60
2010,07,09,08,25,24.60
2010,07,09,08,26,24.60
2010,07,09,08,27,24.70
2010,07,09,08,28,24.70
2010,07,09,08,29,24.70
2010,07,09,08,30,24.70
2010,07,09,08,31,24.70
2010,07,09,08,32,24.70
2010,07,09,08,33,24.70
2010,07,09,08,34,24.80
2010,07,09,08,35,24.90
2010,07,09,08,36,24.90
2010,07,09,08,37,25.00
2010,07,09,08,38,25.00
2010,07,09,08,39,24.90
2010,07,09,08,40,24.90
2010,07,09,08,41,24.80
2010,07,09,08,42,24.80
2010,07,09,08,43,24.80
2010,07,09,08,44,24.80
2010,07,09,08,45,24.80
2010,07,09,08,46,24.80
2010,07,09,08,47,24.80
2010,07,09,08,48,24.80
2010,07,09,08,49,24.80
2010,07,09,08,50,24.80
2010,07,09,08,51,24.80
2010,07,09,08,52,24.80
2010,07,09,08,53,24.70
2010,07,09,08,54,24.70
2010,07,09,08,55,24.70
2010,07,09,08,56,24.70
2010,07,09,08,57,24.70
2010,07,09,08,58,24.60
2010,07,09,08,59,24.60
2010,07,09,09,00,24.60
2010,07,09,09,01,24.60
2010,07,09,09,02,24.70
2010,07,09,09,03,24.70
2010,07,09,09,04,24.80
2010,07,09,09,05,24.80
2010,07,09,09,06,24.80
2010,07,09,09,07,24.80
2010,07,09,09,08,24.70
2010,07,09,09,09,24.70
2010,07,09,09,10,24.50
2010,07,09,09,11,24.30
2010,07,09,09,12,24.00
2010,07,09,09,13,23.70
2010,07,09,09,14,23.50
2010,07,09,09,15,23.30
2010,07,09,09,16,23.20
2010,07,09,09,17,23.00
2010,07,09,09,18,22.90
2010,07,09,09,19,22.80
2010,07,09,09,20,22.80
2010,07,09,09,21,22.70
2010,07,09,09,22,22.70
2010,07,09,09,23,22.70
2010,07,09,09,24,22.70
2010,07,09,09,25,22.70
2010,07,09,09,26,22.70
2010,07,09,09,27,22.70
2010,07,09,09,28,22.70
2010,07,09,09,29,22.80
2010,07,09,09,30,22.90
2010,07,09,09,31,23.00
2010,07,09,09,32,23.20
2010,07,09,09,33,23.30
2010,07,09,09,34,23.60
2010,07,09,09,35,23.80
2010,07,09,09,36,24.00
2010,07,09,09,37,24.20
2010,07,09,09,38,24.20
2010,07,09,09,39,24.30
2010,07,09,09,40,24.30
2010,07,09,09,41,24.40
2010,07,09,09,42,24.40
2010,07,09,09,43,24.50
2010,07,09,09,44,24.60
2010,07,09,09,45,24.70
2010,07,09,09,46,24.90
2010,07,09,09,47,25.00
2010,07,09,09,48,25.20
2010,07,09,09,49,25.30
2010,07,09,09,50,25.30
2010,07,09,09,51,25.30
2010,07,09,09,52,25.40
2010,07,09,09,53,25.50
2010,07,09,09,54,25.50
2010,07,09,09,55,25.60
2010,07,09,09,56,25.60
2010,07,09,09,57,25.60
2010,07,09,09,58,25.60
2010,07,09,09,59,25.60
2010,07,09,10,00,25.70
2010,07,09,10,01,25.60
2010,07,09,10,02,25.60
2010,07,09,10,03,25.60
2010,07,09,10,04,25.50
2010,07,09,10,05,25.40
2010,07,09,10,06,25.40
2010,07,09,10,07,25.30
2010,07,09,10,08,25.30
2010,07,09,10,09,25.30
2010,07,09,10,10,25.40
2010,07,09,10,11,25.50
2010,07,09,10,12,25.60
2010,07,09,10,13,25.70
2010,07,09,10,14,25.70
2010,07,09,10,15,25.70
2010,07,09,10,16,25.60
2010,07,09,10,17,25.50
2010,07,09,10,18,25.30
2010,07,09,10,19,25.10
2010,07,09,10,20,24.90
2010,07,09,10,21,24.70
2010,07,09,10,22,24.50
2010,07,09,10,23,24.40
2010,07,09,10,24,24.20
2010,07,09,10,25,24.10
2010,07,09,10,26,23.90
2010,07,09,10,27,23.80
2010,07,09,10,28,23.80
2010,07,09,10,29,23.70
2010,07,09,10,30,23.70
2010,07,09,10,31,23.70
2010,07,09,10,32,23.80
2010,07,09,10,33,23.80
2010,07,09,10,34,23.80
2010,07,09,10,35,23.90
2010,07,09,10,36,24.00
2010,07,09,10,37,24.10
2010,07,09,10,38,24.20
2010,07,09,10,39,24.30
2010,07,09,10,40,24.30
2010,07,09,10,41,24.30
2010,07,09,10,42,24.40
2010,07,09,10,43,24.40
2010,07,09,10,44,24.40
2010,07,09,10,45,24.40
2010,07,09,10,46,24.40
2010,07,09,10,47,24.40
2010,07,09,10,48,24.40
2010,07,09,10,49,24.40
2010,07,09,10,50,24.30
2010,07,09,10,51,24.20
2010,07,09,10,52,24.10
2010,07,09,10,53,24.00
2010,07,09,10,54,24.00
2010,07,09,10,55,23.90
2010,07,09,10,56,23.90
2010,07,09,10,57,24.00
2010,07,09,10,58,23.90
2010,07,09,10,59,23.90
2010,07,09,11,00,23.90
2010,07,09,11,01,23.90
2010,07,09,11,02,23.90
2010,07,09,11,03,23.90
2010,07,09,11,04,23.90
2010,07,09,11,05,23.90
2010,07,09,11,06,24.00
2010,07,09,11,07,24.10
2010,07,09,11,08,24.10
2010,07,09,11,09,24.10
2010,07,09,11,10,24.10
2010,07,09,11,11,24.20
2010,07,09,11,12,24.30
2010,07,09,11,13,24.30
2010,07,09,11,14,24.40
2010,07,09,11,15,24.50
2010,07,09,11,16,24.60
2010,07,09,11,17,24.60
2010,07,09,11,18,24.70
2010,07,09,11,19,24.60
2010,07,09,11,20,24.60
2010,07,09,11,21,24.70
2010,07,09,11,22,24.70
2010,07,09,11,23,24.80
2010,07,09,11,24,24.80
2010,07,09,11,25,24.80
2010,07,09,11,26,24.70
2010,07,09,11,27,24.70
2010,07,09,11,28,24.70
2010,07,09,11,29,24.60
2010,07,09,11,30,24.50
2010,07,09,11,31,24.50
2010,07,09,11,32,24.50
2010,07,09,11,33,24.40
2010,07,09,11,34,24.40
2010,07,09,11,35,24.30
2010,07,09,11,36,24.30
2010,07,09,11,37,24.20
2010,07,09,11,38,24.20
2010,07,09,11,39,24.10
2010,07,09,11,40,24.10
2010,07,09,11,41,24.00
2010,07,09,11,42,23.90
2010,07,09,11,43,23.80
2010,07,09,11,44,23.80
2010,07,09,11,45,23.90
2010,07,09,11,46,23.80
2010,07,09,11,47,23.80
2010,07,09,11,48,23.80
2010,07,09,11,49,23.90
2010,07,09,11,50,23.90
2010,07,09,11,51,23.80
2010,07,09,11,52,23.80
2010,07,09,11,53,23.70
2010,07,09,11,54,23.70
2010,07,09,11,55,23.80
2010,07,09,11,56,23.80
2010,07,09,11,57,23.90
2010,07,09,11,58,24.00
2010,07,09,11,59,24.10
2010,07,09,12,00,24.20
2010,07,09,12,01,24.30
2010,07,09,12,02,24.50
2010,07,09,12,03,24.80
2010,07,09,12,04,25.00
2010,07,09,12,05,25.30
2010,07,09,12,06,25.60
2010,07,09,12,07,25.80
2010,07,09,12,08,26.00
2010,07,09,12,09,26.20
2010,07,09,12,10,26.20
2010,07,09,12,11,26.30
2010,07,09,12,12,26.30
2010,07,09,12,13,26.30
2010,07,09,12,14,26.20
2010,07,09,12,15,26.10
2010,07,09,12,16,25.90
2010,07,09,12,17,25.70
2010,07,09,12,18,25.60
2010,07,09,12,19,25.50
2010,07,09,12,20,25.40
2010,07,09,12,21,25.30
2010,07,09,12,22,25.30
2010,07,09,12,23,25.20
2010,07,09,12,24,25.10
2010,07,09,12,25,25.00
2010,07,09,12,26,24.90
2010,07,09,12,27,24.90
2010,07,09,12,28,24.90
2010,07,09,12,29,24.80
2010,07,09,12,30,24.70
2010,07,09,12,31,24.60
2010,07,09,12,32,24.60
2010,07,09,12,33,24.60
2010,07,09,12,34,24.70
2010,07,09,12,35,24.70
2010,07,09,12,36,24.70
2010,07,09,12,37,24.70
2010,07,09,12,38,24.70
2010,07,09,12,39,24.60
2010,07,09,12,40,24.60
2010,07,09,12,41,24.60
2010,07,09,12,42,24.50
2010,07,09,12,43,24.50
2010,07,09,12,44,24.40
2010,07,09,12,45,24.50
2010,07,09,12,46,24.50
2010,07,09,12,47,24.60
2010,07,09,12,48,24.70
2010,07,09,12,49,24.80
2010,07,09,12,50,24.80
2010,07,09,12,51,24.90
2010,07,09,12,52,25.00
2010,07,09,12,53,25.20
2010,07,09,12,54,25.30
2010,07,09,12,55,25.60
2010,07,09,12,56,25.80
2010,07,09,12,57,26.00
2010,07,09,12,58,26.10
2010,07,09,12,59,26.30
2010,07,09,13,00,26.30
2010,07,09,13,01,26.40
2010,07,09,13,02,26.40
2010,07,09,13,03,26.50
2010,07,09,13,04,26.50
2010,07,09,13,05,26.40
2010,07,09,13,06,26.30
2010,07,09,13,07,26.20
2010,07,09,13,08,26.20
2010,07,09,13,09,26.10
2010,07,09,13,10,26.10
2010,07,09,13,11,26.10
2010,07,09,13,12,26.00
2010,07,09,13,13,25.90
2010,07,09,13,14,25.90
2010,07,09,13,15,25.90
2010,07,09,13,16,25.90
2010,07,09,13,17,25.90
2010,07,09,13,18,25.90
2010,07,09,13,19,25.90
2010,07,09,13,20,25.90
2010,07,09,13,21,26.00
2010,07,09,13,22,26.00
2010,07,09,13,23,26.00
2010,07,09,13,24,26.00
2010,07,09,13,25,26.10
2010,07,09,13,26,26.20
2010,07,09,13,27,26.20
2010,07,09,13,28,26.20
2010,07,09,13,29,26.10
2010,07,09,13,30,26.00
2010,07,09,13,31,25.90
2010,07,09,13,32,25.90
2010,07,09,13,33,25.80
2010,07,09,13,34,25.90
2010,07,09,13,35,25.90
2010,07,09,13,36,25.90
2010,07,09,13,37,25.90
2010,07,09,13,38,26.00
2010,07,09,13,39,26.20
2010,07,09,13,40,26.40
2010,07,09,13,41,26.50
2010,07,09,13,42,26.50
2010,07,09,13,43,26.60
2010,07,09,13,44,26.60
2010,07,09,13,45,26.50
2010,07,09,13,46,26.40
2010,07,09,13,47,26.40
2010,07,09,13,48,26.30
2010,07,09,13,49,26.40
2010,07,09,13,50,26.50
2010,07,09,13,51,26.50
2010,07,09,13,52,26.60
2010,07,09,13,53,26.70
2010,07,09,13,54,26.70
2010,07,09,13,55,26.80
2010,07,09,13,56,26.90
2010,07,09,13,57,26.90
2010,07,09,13,58,26.90
2010,07,09,13,59,26.90
2010,07,09,14,00,26.90
2010,07,09,14,01,26.90
2010,07,09,14,02,26.90
2010,07,09,14,03,26.70
2010,07,09,14,04,26.60
2010,07,09,14,05,26.40
2010,07,09,14,06,26.30
2010,07,09,14,07,26.20
2010,07,09,14,08,26.10
2010,07,09,14,09,26.10
2010,07,09,14,10,26.10
2010,07,09,14,11,26.20
2010,07,09,14,12,26.20
2010,07,09,14,13,26.20
2010,07,09,14,14,26.20
2010,07,09,14,15,26.30
2010,07,09,14,16,26.30
2010,07,09,14,17,26.30
2010,07,09,14,18,26.30
2010,07,09,14,19,26.30
2010,07,09,14,20,26.30
2010,07,09,14,21,26.30
2010,07,09,14,22,26.30
2010,07,09,14,23,26.30
2010,07,09,14,24,26.30
2010,07,09,14,25,26.40
2010,07,09,14,26,26.50
2010,07,09,14,27,26.60
2010,07,09,14,28,26.80
2010,07,09,14,29,26.80
2010,07,09,14,30,26.80
2010,07,09,14,31,26.90
2010,07,09,14,32,26.90
2010,07,09,14,33,26.90
2010,07,09,14,34,26.90
2010,07,09,14,35,26.90
2010,07,09,14,36,27.00
2010,07,09,14,37,27.00
2010,07,09,14,38,27.00
2010,07,09,14,39,27.20
2010,07,09,14,40,27.30
2010,07,09,14,41,27.40
2010,07,09,14,42,27.40
2010,07,09,14,43,27.40
2010,07,09,14,44,27.40
2010,07,09,14,45,27.40
2010,07,09,14,46,27.50
2010,07,09,14,47,27.60
2010,07,09,14,48,27.60
2010,07,09,14,49,27.70
2010,07,09,14,50,27.70
2010,07,09,14,51,27.70
2010,07,09,14,52,27.70
2010,07,09,14,53,27.80
2010,07,09,14,54,27.80
2010,07,09,14,55,27.80
2010,07,09,14,56,27.70
2010,07,09,14,57,27.70
2010,07,09,14,58,27.60
2010,07,09,14,59,27.50
2010,07,09,15,00,27.50
2010,07,09,15,01,27.50
2010,07,09,15,02,27.40
2010,07,09,15,03,27.30
2010,07,09,15,04,27.20
2010,07,09,15,05,27.10
2010,07,09,15,06,27.00
2010,07,09,15,07,27.00
2010,07,09,15,08,27.00
2010,07,09,15,09,27.10
2010,07,09,15,10,27.10
2010,07,09,15,11,27.20
2010,07,09,15,12,27.30
2010,07,09,15,13,27.30
2010,07,09,15,14,27.40
2010,07,09,15,15,27.40
2010,07,09,15,16,27.40
2010,07,09,15,17,27.40
2010,07,09,15,18,27.40
2010,07,09,15,19,27.40
2010,07,09,15,20,27.40
2010,07,09,15,21,27.40
2010,07,09,15,22,27.40
2010,07,09,15,23,27.40
2010,07,09,15,24,27.40
2010,07,09,15,25,27.40
2010,07,09,15,26,27.40
2010,07,09,15,27,27.30
2010,07,09,15,28,27.20
2010,07,09,15,29,27.20
2010,07,09,15,30,27.10
2010,07,09,15,31,27.10
2010,07,09,15,32,27.10
2010,07,09,15,33,27.10
2010,07,09,15,34,27.10
2010,07,09,15,35,27.10
2010,07,09,15,36,27.10
2010,07,09,15,37,27.10
2010,07,09,15,38,27.00
2010,07,09,15,39,27.00
2010,07,09,15,40,27.00
2010,07,09,15,41,26.90
2010,07,09,15,42,26.90
2010,07,09,15,43,26.90
2010,07,09,15,44,26.90
2010,07,09,15,45,26.90
2010,07,09,15,46,26.90
2010,07,09,15,47,26.90
2010,07,09,15,48,26.90
2010,07,09,15,49,26.80
2010,07,09,15,50,26.80
2010,07,09,15,51,26.80
2010,07,09,15,52,26.80
2010,07,09,15,53,26.80
2010,07,09,15,54,26.80
2010,07,09,15,55,26.80
2010,07,09,15,56,26.80
2010,07,09,15,57,26.80
2010,07,09,15,58,26.80
2010,07,09,15,59,26.80
2010,07,09,16,00,26.80
2010,07,09,16,01,26.80
2010,07,09,16,02,26.80
2010,07,09,16,03,26.70
2010,07,09,16,04,26.70
2010,07,09,16,05,26.70
2010,07,09,16,06,26.60
2010,07,09,16,07,26.60
2010,07,09,16,08,26.50
2010,07,09,16,09,26.50
2010,07,09,16,10,26.50
2010,07,09,16,11,26.40
2010,07,09,16,12,26.40
2010,07,09,16,13,26.40
2010,07,09,16,14,26.40
2010,07,09,16,15,26.30
2010,07,09,16,16,26.30
2010,07,09,16,17,26.30
2010,07,09,16,18,26.30
2010,07,09,16,19,26.30
2010,07,09,16,20,26.30
2010,07,09,16,21,26.30
2010,07,09,16,22,26.30
2010,07,09,16,23,26.20
2010,07,09,16,24,26.10
2010,07,09,16,25,26.00
2010,07,09,16,26,26.00
2010,07,09,16,27,26.00
2010,07,09,16,28,26.00
2010,07,09,16,29,25.90
2010,07,09,16,30,25.90
2010,07,09,16,31,25.90
2010,07,09,16,32,25.90
2010,07,09,16,33,25.90
2010,07,09,16,34,25.90
2010,07,09,16,35,25.90
2010,07,09,16,36,25.90
2010,07,09,16,37,25.90
2010,07,09,16,38,25.90
2010,07,09,16,39,25.90
2010,07,09,16,40,25.90
2010,07,09,16,41,25.90
2010,07,09,16,42,25.80
2010,07,09,16,43,25.80
2010,07,09,16,44,25.80
2010,07,09,16,45,25.80
2010,07,09,16,46,25.70
2010,07,09,16,47,25.70
2010,07,09,16,48,25.60
2010,07,09,16,49,25.60
2010,07,09,16,50,25.60
2010,07,09,16,51,25.60
2010,07,09,16,52,25.60
2010,07,09,16,53,25.60
2010,07,09,16,54,25.60
2010,07,09,16,55,25.60
2010,07,09,16,56,25.60
2010,07,09,16,57,25.50
2010,07,09,16,58,25.50
2010,07,09,16,59,25.50
2010,07,09,17,00,25.50
2010,07,09,17,01,25.50
2010,07,09,17,02,25.50
2010,07,09,17,03,25.50
2010,07,09,17,04,25.50
2010,07,09,17,05,25.50
2010,07,09,17,06,25.50
2010,07,09,17,07,25.50
2010,07,09,17,08,25.50
2010,07,09,17,09,25.50
2010,07,09,17,10,25.50
2010,07,09,17,11,25.50
2010,07,09,17,12,25.40
2010,07,09,17,13,25.40
2010,07,09,17,14,25.40
2010,07,09,17,15,25.30
2010,07,09,17,16,25.30
2010,07,09,17,17,25.30
2010,07,09,17,18,25.30
2010,07,09,17,19,25.30